Home > Weather > Same > Past weeks

Flag for Timor-Leste Weather for the Past 2 Weeks in Same, Timor-Leste

Now
90 °F

Passing clouds.


Feels Like: 105 °F
Forecast: 81 / 89 °F
Wind: 13 mph from Northwest

Location: Darwin Airport

Current Time: Feb 9, 2016 at 1:45:06 PM

Latest Report: Feb 9, 2016 at 12:30 PM


Visibility: N/A

Pressure: 29.77 "Hg

Humidity: 71%

Dew point: 79 °F

Location of SameLocation

Historic Weather in Same — Graph

°F

Same Temperature Yesterday

Maximum temperature yesterday: 90 °F (at 11:00 AM)
Minimum temperature yesterday: 81 °F (at 12:00 AM)
Average temperature yesterday: 83 °F

High & Low Weather Summary for the Past Weeks

 TemperatureHumidityPressure
High91 °F (Jan 26, 1:00 PM)100% (Jan 31, 3:30 AM)29.89 "Hg (Jan 31, 3:30 AM)
Low75 °F (Jan 31, 8:00 AM)52% (Feb 6, 5:00 PM)29.65 "Hg (Feb 6, 3:30 PM)
Average84 °F81%29.76 "Hg
* Reported Jan 25 11:00 AM — Feb 9 11:30 AM, Same, Weather by CustomWeather, © 2016

Note: Actual official high and low records may vary slightly from our data, if they occured in-between our weather recording intervals... More about our weather records

Advertising

Same Weather History for the Previous 24 Hours

 ConditionsComfort  
Time TempWeatherWind HumidityBarometerVisibility
11:30 AM
Tue, Feb 9
90 °FScattered clouds.9 mph67%29.77 "HgN/A
11:00 AM90 °FScattered clouds.9 mph71%29.77 "HgN/A
10:30 AM90 °FScattered clouds.8 mph71%29.80 "HgN/A
10:00 AM90 °FPartly sunny.10 mph71%29.80 "HgN/A
9:00 AM88 °FPartly sunny.8 mph70%29.80 "HgN/A
8:30 AM86 °FPartly sunny.9 mph75%29.80 "HgN/A
8:00 AM86 °FBroken clouds.8 mph75%29.80 "HgN/A
7:00 AM84 °FBroken clouds.7 mph84%29.77 "HgN/A
6:00 AM82 °FPassing clouds.7 mph89%29.77 "HgN/A
5:30 AM82 °FPassing clouds.7 mph89%29.74 "HgN/A
5:00 AM82 °FPassing clouds.7 mph89%29.74 "HgN/A
4:30 AM82 °FPassing clouds.9 mph89%29.74 "HgN/A
4:00 AM82 °FPassing clouds.10 mph84%29.74 "HgN/A
3:30 AM82 °FPassing clouds.8 mph84%29.74 "HgN/A
3:00 AM82 °FPassing clouds.8 mph84%29.74 "HgN/A
2:30 AM82 °FPassing clouds.7 mph84%29.74 "HgN/A
2:00 AM82 °FPassing clouds.7 mph89%29.74 "HgN/A
1:30 AM82 °FPassing clouds.8 mph89%29.74 "HgN/A
1:00 AM82 °FPassing clouds.7 mph89%29.77 "HgN/A
12:30 AM82 °FPassing clouds.8 mph89%29.77 "HgN/A
12:00 AM82 °FPassing clouds.7 mph89%29.77 "HgN/A
11:30 PM
Mon, Feb 8
81 °FPassing clouds.6 mph94%29.77 "HgN/A
11:00 PM81 °FClear.5 mph89%29.77 "Hg10 mi
10:30 PM81 °FClear.No wind89%29.77 "Hg10 mi
10:00 PM81 °FClear.6 mph89%29.77 "Hg10 mi
9:30 PM81 °FClear.6 mph89%29.77 "Hg10 mi
9:00 PM81 °FClear.5 mph89%29.77 "Hg10 mi
8:30 PM82 °FPassing clouds.1 mph84%29.77 "HgN/A
8:00 PM82 °FPassing clouds.No wind84%29.77 "HgN/A
7:30 PM84 °FPassing clouds.7 mph79%29.74 "HgN/A
7:00 PM84 °FSunny.8 mph74%29.74 "Hg10 mi
6:30 PM84 °FPartly sunny.6 mph70%29.74 "HgN/A
6:00 PM84 °FSunny.7 mph70%29.74 "Hg10 mi
5:30 PM84 °FBroken clouds.8 mph70%29.71 "HgN/A
5:00 PM84 °FBroken clouds.10 mph70%29.71 "HgN/A
4:30 PM84 °FBroken clouds.12 mph66%29.71 "HgN/A
4:00 PM86 °FScattered showers. Partly sunny.9 mph59%29.71 "HgN/A
3:45 PM84 °FThundershowers. Partly sunny.10 mph62%29.74 "HgN/A
3:30 PM84 °FThunderstorms. Partly sunny.13 mph62%29.74 "HgN/A
3:00 PM84 °FScattered showers. Broken clouds.16 mph66%29.74 "HgN/A
2:30 PM86 °FScattered showers. Broken clouds.10 mph66%29.74 "HgN/A
2:00 PM82 °FScattered showers. Broken clouds.14 mph79%29.74 "Hg6 mi
1:00 PM88 °FSprinkles. Scattered clouds.10 mph75%29.74 "HgN/A
Weather by CustomWeather, © 2016

See weather overviewHow to use our weather pages